QPF
0.00 0.00 0.00 0.00 0.00 0.00 0.00 0.00 0.00 0.00 0.00 0.00 0.00 0.00 0.00 0.00 0.00 0.00 0.00 0.00 0.00 0.00 0.00 0.00 0.00 0.00 0.00 0.00 0.00 0.00 0.00 0.00 0.00 0.00 0.00 0.00 0.00 0.00 0.00 0.00 0.00 0.00 0.00 0.00 0.00
0.00 0.00 0.00 0.00 0.00 0.00 0.00 0.00 0.00 0.00 0.00 0.00 0.00 0.00 0.00 0.00 0.00 0.00 0.00 0.00 0.00 0.00 0.00 0.00 0.00 0.00 0.00 0.00 0.00 0.00 0.00 0.00 0.00 0.00 0.00 0.00 0.00 0.00 0.00 0.00 0.00 0.00 0.00 0.00 0.00
0.00 0.00 0.00 0.00 0.00 0.00 0.00 0.00 0.00 0.00 0.00 0.00 0.00 0.00 0.00 0.00 0.00 0.00 0.00 0.00 0.00 0.00 0.00 0.00 0.00 0.00 0.00 0.00 0.00 0.00 0.00 0.00 0.00 0.00 0.00 0.00 0.00 0.00 0.00 0.00 0.00 0.00 0.00 0.00 0.01
0.00 0.00 0.00 0.00 0.00 0.00 0.00 0.00 0.00 0.00 0.00 0.00 0.00 0.00 0.00 0.00 0.00 0.00 0.00 0.00 0.00 0.00 0.00 0.00 0.00 0.00 0.00 0.00 0.00 0.00 0.00 0.00 0.00 0.00 0.00 0.00 0.00 0.00 0.00 0.00 0.00 0.00 0.00 0.00 0.00
0.00 0.00 0.00 0.00 0.00 0.00 0.00 0.00 0.00 0.00 0.00 0.00 0.00 0.00 0.00 0.00 0.00 0.00 0.00 0.00 0.00 0.00 0.00 0.00 0.00 0.00 0.00 0.00 0.00 0.00 0.00 0.00 0.00 0.00 0.00 0.00 0.00 0.00 0.00 0.00 0.00 0.00 0.00 0.00 0.00
0.00 0.00 0.00 0.00 0.00 0.00 0.00 0.00 0.00 0.00 0.00 0.00 0.00 0.00 0.00 0.00 0.00 0.00 0.00 0.00 0.00 0.00 0.00 0.00 0.00 0.00 0.00 0.00 0.00 0.00 0.00 0.00 0.00 0.00 0.00 0.00 0.00 0.00 0.00 0.00 0.00 0.00 0.00 0.00 0.00
0.00 0.00 0.00 0.00 0.00 0.00 0.00 0.00 0.00 0.00 0.00 0.00 0.00 0.00 0.00 0.00 0.00 0.00 0.00 0.00 0.00 0.00 0.00 0.00 0.00 0.00 0.00 0.00 0.00 0.00 0.00 0.00 0.00 0.00 0.00 0.00 0.00 0.00 0.00 0.00 0.00 0.00 0.00 0.00 0.00
0.00 0.00 0.00 0.00 0.00 0.00 0.00 0.00 0.00 0.00 0.00 0.00 0.00 0.00 0.00 0.00 0.00 0.00 0.00 0.00 0.00 0.00 0.00 0.00 0.00 0.00 0.00 0.00 0.00 0.00 0.00 0.00 0.00 0.00 0.00 0.00 0.00 0.00 0.00 0.00 0.00 0.00 0.00 0.00 0.00
0.00 0.00 0.00 0.00 0.00 0.00 0.00 0.00 0.00 0.00 0.00 0.00 0.00 0.00 0.00 0.00 0.00 0.00 0.00 0.00 0.00 0.00 0.00 0.00 0.00 0.00 0.00 0.00 0.00 0.00 0.00 0.00 0.00 0.00 0.00 0.00 0.00 0.00 0.00 0.00 0.00 0.00 0.00 0.00 0.00
0.00 0.00 0.00 0.00 0.00 0.00 0.00 0.00 0.00 0.00 0.00 0.00 0.00 0.00 0.00 0.00 0.00 0.00 0.00 0.00 0.00 0.00 0.00 0.00 0.00 0.00 0.00 0.00 0.00 0.00 0.00 0.00 0.00 0.00 0.00 0.00 0.00 0.00 0.00 0.00 0.00 0.00 0.00 0.00 0.00
0.00 0.00 0.00 0.00 0.00 0.00 0.00 0.00 0.00 0.00 0.00 0.00 0.00 0.00 0.00 0.00 0.00 0.00 0.00 0.00 0.00 0.00 0.00 0.00 0.00 0.00 0.00 0.00 0.00 0.00 0.00 0.00 0.00 0.00 0.00 0.00 0.00 0.00 0.00 0.00 0.00 0.00 0.00 0.00 0.00
0.00 0.00 0.00 0.00 0.00 0.00 0.00 0.00 0.00 0.00 0.00 0.00 0.00 0.00 0.00 0.00 0.00 0.00 0.00 0.00 0.00 0.00 0.00 0.00 0.00 0.00 0.00 0.00 0.00 0.00 0.00 0.00 0.00 0.00 0.00 0.00 0.00 0.00 0.00 0.00 0.00 0.00 0.00 0.00 0.00
0.00 0.00 0.00 0.00 0.00 0.00 0.00 0.00 0.00 0.00 0.00 0.00 0.00 0.00 0.00 0.00 0.00 0.00 0.00 0.00 0.00 0.00 0.00 0.00 0.00 0.00 0.00 0.00 0.00 0.00 0.00 0.00 0.00 0.00 0.00 0.00 0.00 0.00 0.00 0.00 0.00 0.00 0.00 0.00 0.00
0.00 0.00 0.00 0.00 0.00 0.00 0.00 0.00 0.00 0.00 0.00 0.00 0.00 0.00 0.00 0.00 0.00 0.00 0.00 0.00 0.00 0.00 0.00 0.00 0.00 0.00 0.00 0.00 0.00 0.00 0.00 0.00 0.00 0.00 0.00 0.00 0.00 0.00 0.00 0.00 0.00 0.00 0.00 0.00 0.00
0.00 0.00 0.00 0.00 0.00 0.00 0.00 0.00 0.00 0.00 0.00 0.00 0.00 0.00 0.00 0.00 0.00 0.00 0.00 0.00 0.00 0.00 0.00 0.00 0.00 0.00 0.00 0.00 0.00 0.00 0.00 0.00 0.00 0.00 0.00 0.00 0.00 0.00 0.00 0.00 0.00 0.00 0.00 0.00 0.00
0.00 0.00 0.00 0.00 0.00 0.00 0.00 0.00 0.00 0.00 0.00 0.00 0.00 0.00 0.00 0.00 0.00 0.00 0.00 0.00 0.00 0.00 0.00 0.00 0.00 0.00 0.00 0.00 0.00 0.00 0.00 0.00 0.00 0.00 0.00 0.00 0.00 0.00 0.00 0.00 0.00 0.00 0.00 0.00 0.00
0.00 0.00 0.00 0.00 0.00 0.00 0.00 0.00 0.00 0.00 0.00 0.00 0.00 0.00 0.00 0.00 0.00 0.00 0.00 0.00 0.00 0.00 0.00 0.00 0.00 0.00 0.00 0.00 0.00 0.00 0.00 0.00 0.00 0.00 0.00 0.00 0.00 0.00 0.00 0.00 0.00 0.00 0.00 0.00 0.00
0.00 0.00 0.00 0.00 0.00 0.00 0.00 0.00 0.00 0.00 0.00 0.00 0.00 0.00 0.00 0.00 0.00 0.00 0.00 0.00 0.00 0.00 0.00 0.00 0.00 0.00 0.00 0.00 0.00 0.00 0.00 0.00 0.00 0.00 0.00 0.00 0.00 0.00 0.00 0.00 0.00 0.00 0.00 0.00 0.00
0.00 0.00 0.00 0.00 0.00 0.00 0.00 0.00 0.00 0.00 0.00 0.00 0.00 0.00 0.00 0.00 0.00 0.00 0.00 0.00 0.00 0.00 0.00 0.00 0.00 0.00 0.00 0.00 0.00 0.00 0.00 0.00 0.00 0.00 0.00 0.00 0.00 0.00 0.00 0.00 0.00 0.00 0.00 0.00 0.00
0.00 0.00 0.00 0.00 0.00 0.00 0.00 0.00 0.00 0.00 0.00 0.00 0.00 0.00 0.00 0.00 0.00 0.00 0.00 0.00 0.00 0.00 0.00 0.00 0.00 0.00 0.00 0.00 0.00 0.00 0.00 0.00 0.00 0.00 0.00 0.00 0.00 0.00 0.00 0.00 0.00 0.00 0.00 0.00 0.00
0.00 0.00 0.00 0.00 0.00 0.00 0.00 0.00 0.00 0.00 0.00 0.00 0.00 0.00 0.00 0.00 0.00 0.00 0.00 0.00 0.00 0.00 0.00 0.00 0.00 0.00 0.00 0.00 0.00 0.00 0.00 0.00 0.00 0.00 0.00 0.00 0.00 0.00 0.00 0.00 0.00 0.00 0.00 0.00 0.00
0.00 0.00 0.00 0.00 0.00 0.00 0.00 0.00 0.00 0.00 0.00 0.00 0.00 0.00 0.00 0.00 0.00 0.00 0.00 0.00 0.00 0.00 0.00 0.00 0.00 0.00 0.00 0.00 0.00 0.00 0.00 0.00 0.00 0.00 0.00 0.00 0.00 0.00 0.00 0.00 0.00 0.00 0.00 0.00 0.00
0.00 0.00 0.00 0.00 0.00 0.00 0.00 0.00 0.00 0.00 0.00 0.00 0.00 0.00 0.00 0.00 0.00 0.00 0.00 0.00 0.00 0.00 0.00 0.00 0.00 0.00 0.00 0.00 0.00 0.00 0.00 0.00 0.00 0.00 0.00 0.00 0.00 0.00 0.00 0.00 0.00 0.00 0.00 0.00 0.00
0.00 0.00 0.00 0.00 0.00 0.00 0.00 0.00 0.00 0.00 0.00 0.00 0.00 0.00 0.00 0.00 0.00 0.00 0.00 0.00 0.00 0.00 0.00 0.00 0.00 0.00 0.00 0.00 0.00 0.00 0.00 0.00 0.00 0.00 0.00 0.00 0.00 0.00 0.00 0.00 0.00 0.00 0.00 0.00 0.00
0.00 0.00 0.00 0.00 0.00 0.00 0.00 0.00 0.00 0.00 0.00 0.00 0.00 0.00 0.00 0.00 0.00 0.00 0.00 0.00 0.00 0.00 0.00 0.00 0.00 0.00 0.00 0.00 0.00 0.00 0.00 0.00 0.00 0.00 0.00 0.00 0.00 0.00 0.00 0.00 0.00 0.00 0.00 0.00 0.00
0.00 0.00 0.00 0.00 0.00 0.00 0.00 0.00 0.00 0.00 0.00 0.00 0.00 0.00 0.00 0.00 0.00 0.00 0.00 0.00 0.00 0.00 0.00 0.00 0.00 0.00 0.00 0.00 0.00 0.00 0.00 0.00 0.00 0.00 0.00 0.00 0.00 0.00 0.00 0.00 0.00 0.00 0.00 0.00 0.00
0.00 0.00 0.00 0.00 0.00 0.00 0.00 0.00 0.00 0.00 0.00 0.00 0.00 0.00 0.00 0.00 0.00 0.00 0.00 0.00 0.00 0.00 0.00 0.00 0.00 0.00 0.00 0.00 0.00 0.00 0.00 0.00 0.00 0.00 0.00 0.00 0.00 0.00 0.00 0.00 0.00 0.00 0.00 0.00 0.00
MSLP
1021.97 1021.94 1021.78 1021.47 1021.24 1020.93 1020.53 1020.18 1019.91 1019.63 1019.36 1019.08 1018.86 1018.61 1018.45 1018.34 1018.23 1017.94 1017.76 1017.52 1017.34 1017.06 1016.90 1017.19 1017.25 1017.07 1017.18 1017.47 1017.71 1018.22 1019.28 1019.55 1018.93 1018.30 1017.33 1016.75 1016.31 1015.72 1015.64 1015.54 1015.13 1014.67 1014.64 1014.45 1013.65
1022.04 1022.02 1021.79 1021.58 1021.32 1020.98 1020.61 1020.06 1019.79 1019.48 1019.27 1019.01 1018.80 1018.64 1018.36 1018.09 1018.31 1017.94 1017.52 1017.20 1017.07 1017.07 1017.08 1017.24 1017.47 1017.42 1017.67 1017.73 1018.02 1018.41 1019.26 1018.83 1018.20 1017.62 1017.13 1016.85 1016.80 1016.32 1016.02 1015.61 1015.32 1015.16 1014.61 1014.35 1014.02
1022.27 1022.05 1021.72 1021.46 1021.28 1020.93 1020.65 1020.24 1019.81 1019.37 1019.27 1019.05 1018.93 1018.66 1018.49 1018.23 1018.19 1017.93 1017.25 1017.15 1017.11 1017.36 1017.33 1017.43 1017.41 1017.55 1017.90 1017.91 1018.22 1018.53 1018.71 1018.35 1017.79 1017.39 1017.26 1016.94 1016.60 1016.30 1016.21 1016.07 1015.62 1015.53 1015.37 1015.02 1014.47
1022.46 1022.27 1021.83 1021.43 1021.05 1020.74 1020.41 1020.37 1019.89 1019.38 1019.10 1018.91 1018.82 1018.73 1018.33 1018.33 1018.29 1017.50 1017.39 1017.18 1017.03 1017.23 1017.32 1017.53 1017.75 1017.83 1018.22 1018.27 1018.35 1018.62 1018.30 1018.21 1017.85 1017.51 1017.44 1017.03 1016.72 1016.57 1016.41 1015.98 1015.42 1015.31 1015.43 1015.55 1015.10
1022.41 1022.36 1021.89 1021.55 1020.99 1020.68 1020.29 1019.99 1019.74 1019.42 1019.13 1018.94 1018.92 1018.96 1018.83 1018.33 1017.83 1017.44 1017.38 1017.41 1017.23 1017.33 1017.43 1017.72 1018.04 1018.18 1018.31 1018.49 1018.49 1018.63 1018.44 1018.17 1017.86 1017.74 1017.54 1016.91 1016.77 1016.72 1016.41 1016.10 1015.38 1015.25 1015.39 1015.58 1015.51
1022.41 1022.22 1022.03 1021.70 1021.16 1020.67 1020.35 1020.03 1019.52 1019.18 1018.89 1018.80 1018.78 1019.01 1018.94 1018.30 1017.51 1017.58 1017.73 1017.63 1017.61 1017.69 1017.66 1017.81 1018.07 1018.26 1018.52 1018.74 1018.93 1018.91 1018.70 1018.30 1017.81 1017.49 1017.38 1017.30 1016.89 1017.03 1016.51 1016.08 1015.66 1015.74 1015.55 1015.87 1015.72
1022.62 1022.12 1021.79 1021.63 1021.31 1020.66 1020.16 1020.02 1019.77 1019.08 1018.86 1018.65 1018.83 1019.12 1018.82 1018.24 1017.70 1017.65 1017.75 1017.91 1017.89 1017.93 1017.94 1017.97 1018.11 1018.51 1018.85 1018.91 1019.07 1019.10 1019.18 1018.54 1017.83 1017.66 1017.66 1017.39 1017.29 1017.06 1016.52 1016.33 1016.29 1016.17 1016.10 1016.36 1016.44
1022.62 1022.24 1021.79 1021.37 1021.14 1020.73 1020.11 1019.78 1019.56 1019.20 1018.86 1018.75 1018.94 1019.33 1018.71 1017.91 1017.70 1017.58 1017.93 1018.02 1017.95 1018.07 1018.09 1018.08 1018.30 1018.74 1019.06 1019.18 1019.39 1019.65 1019.65 1019.29 1018.28 1017.87 1018.15 1017.93 1017.84 1016.81 1016.77 1016.84 1017.12 1017.15 1017.20 1017.28 1017.34
1022.40 1022.22 1021.74 1021.28 1020.88 1020.66 1020.17 1019.82 1019.39 1019.15 1018.99 1018.98 1019.25 1019.36 1018.66 1018.01 1017.93 1018.13 1018.11 1018.27 1018.40 1018.41 1018.39 1018.23 1018.56 1019.63 1019.78 1020.09 1020.48 1020.55 1020.35 1020.01 1019.11 1018.62 1018.51 1018.84 1018.48 1017.80 1018.03 1017.67 1017.95 1018.36 1018.35 1018.32 1018.09
1022.39 1022.18 1021.91 1021.20 1020.85 1020.50 1020.09 1019.83 1019.68 1019.46 1019.31 1019.19 1019.37 1019.56 1018.70 1018.36 1018.17 1018.45 1018.40 1018.53 1018.72 1018.92 1019.12 1019.26 1019.95 1020.46 1020.84 1020.82 1020.93 1020.75 1020.66 1020.48 1020.13 1019.43 1019.10 1019.27 1019.46 1019.78 1019.63 1019.34 1019.65 1019.55 1019.40 1019.18 1019.14
1022.38 1022.04 1021.81 1021.50 1020.51 1020.34 1020.33 1020.28 1020.61 1020.44 1019.99 1019.65 1019.63 1019.22 1018.66 1018.33 1018.10 1018.44 1018.43 1018.77 1019.09 1019.71 1020.24 1020.34 1020.94 1020.91 1020.63 1020.57 1020.37 1020.53 1020.71 1020.83 1020.62 1020.08 1020.08 1019.98 1020.38 1020.64 1020.64 1020.48 1020.65 1020.73 1020.76 1020.31 1019.69
1022.24 1021.99 1021.44 1021.57 1020.61 1020.46 1020.99 1021.24 1021.75 1022.23 1021.00 1019.97 1019.71 1019.22 1018.89 1018.94 1018.79 1018.92 1018.73 1019.25 1019.62 1020.22 1020.73 1021.22 1020.94 1020.43 1020.56 1020.61 1020.74 1020.74 1020.83 1020.93 1020.72 1020.38 1020.55 1020.62 1021.18 1021.37 1021.34 1021.47 1021.66 1021.65 1021.43 1021.08 1020.47
1022.33 1021.82 1021.47 1021.23 1020.58 1021.08 1021.68 1022.04 1022.18 1022.19 1021.41 1020.16 1019.58 1019.12 1018.98 1018.99 1018.99 1018.93 1019.19 1019.47 1019.91 1020.56 1021.08 1021.32 1020.66 1020.43 1020.62 1020.80 1020.95 1020.89 1020.87 1020.87 1021.16 1021.02 1020.99 1021.36 1021.56 1021.73 1022.12 1022.14 1022.18 1022.33 1022.37 1021.88 1021.43
1022.23 1022.03 1021.45 1021.11 1021.33 1021.74 1021.90 1022.07 1022.06 1022.19 1022.03 1020.77 1019.85 1019.28 1019.25 1019.29 1019.37 1019.11 1019.24 1019.91 1020.33 1020.83 1021.28 1021.35 1020.64 1020.53 1020.61 1020.78 1021.08 1021.26 1020.78 1021.10 1021.35 1022.02 1022.46 1022.39 1022.48 1022.12 1022.56 1022.98 1022.95 1023.02 1022.96 1022.72 1022.14
1022.21 1022.10 1021.72 1021.36 1021.98 1022.33 1022.54 1021.99 1022.00 1022.10 1022.49 1021.48 1020.42 1019.61 1019.58 1019.97 1020.08 1019.87 1019.80 1019.88 1020.52 1020.91 1021.50 1021.04 1020.67 1020.48 1020.41 1020.24 1020.53 1020.87 1021.20 1021.91 1022.35 1023.00 1023.52 1023.42 1024.13 1022.25 1022.66 1023.25 1023.59 1023.61 1023.47 1023.33 1023.02
1022.09 1022.05 1021.90 1021.97 1022.36 1022.38 1022.24 1021.97 1022.18 1023.17 1022.81 1022.06 1021.49 1020.84 1020.67 1020.59 1020.58 1020.46 1020.50 1020.57 1020.84 1021.17 1021.39 1021.25 1020.73 1020.45 1020.07 1019.80 1020.24 1020.80 1021.81 1023.13 1024.17 1024.81 1025.13 1023.63 1023.80 1022.45 1022.63 1022.57 1023.58 1023.88 1023.87 1023.71 1023.49
1022.10 1021.93 1022.07 1022.22 1022.61 1022.30 1022.16 1022.54 1023.67 1024.23 1023.76 1023.15 1022.61 1022.29 1022.14 1022.16 1021.73 1021.34 1021.46 1021.67 1021.85 1022.22 1022.05 1021.50 1020.70 1020.15 1020.03 1020.20 1020.48 1021.23 1022.77 1025.11 1026.22 1026.97 1025.65 1024.24 1024.14 1021.80 1022.16 1022.54 1023.32 1023.95 1024.06 1024.03 1023.87
1021.90 1022.00 1022.22 1022.25 1022.56 1022.30 1022.63 1023.58 1024.96 1024.88 1024.45 1023.79 1023.48 1023.37 1023.53 1023.60 1023.08 1022.69 1022.58 1022.69 1022.66 1022.86 1023.19 1022.54 1021.41 1020.54 1020.30 1020.27 1020.56 1021.58 1022.89 1025.24 1026.45 1027.46 1026.42 1025.03 1023.67 1022.20 1022.46 1022.94 1023.57 1024.04 1024.34 1024.35 1024.14
1021.94 1022.41 1022.52 1022.62 1022.61 1022.49 1023.28 1024.70 1024.41 1024.55 1024.17 1024.23 1024.39 1024.58 1024.89 1024.65 1024.43 1023.80 1023.50 1023.26 1023.00 1023.06 1023.42 1023.21 1022.21 1021.03 1020.71 1020.61 1020.85 1022.00 1022.94 1023.75 1026.17 1028.13 1027.24 1024.97 1023.47 1022.86 1022.98 1023.46 1023.79 1024.13 1024.42 1024.54 1024.52
1022.44 1022.84 1022.80 1022.67 1022.74 1023.09 1024.08 1024.89 1024.44 1023.89 1023.63 1023.94 1024.56 1025.37 1025.85 1025.86 1025.53 1024.88 1024.14 1023.68 1023.43 1023.35 1023.46 1023.63 1023.29 1021.85 1021.50 1021.37 1021.46 1021.55 1022.60 1024.10 1025.68 1027.12 1027.22 1025.09 1024.20 1022.83 1023.01 1023.42 1023.96 1024.29 1024.40 1024.52 1024.54
1022.44 1023.14 1023.03 1022.87 1023.03 1023.91 1025.49 1025.18 1024.22 1023.50 1023.19 1023.68 1024.30 1025.39 1026.08 1026.39 1026.28 1025.71 1024.65 1024.08 1023.83 1023.92 1024.01 1024.11 1024.34 1023.36 1022.89 1022.60 1022.37 1022.62 1023.03 1024.13 1024.95 1025.86 1026.41 1025.92 1023.55 1022.34 1022.19 1022.93 1023.83 1024.27 1024.44 1024.47 1024.55
1022.53 1023.58 1023.17 1023.24 1024.40 1026.00 1025.91 1024.49 1023.74 1023.42 1023.28 1023.37 1023.91 1024.96 1025.85 1026.40 1026.68 1026.35 1025.25 1024.45 1024.19 1024.13 1024.53 1024.77 1025.24 1025.31 1024.48 1024.06 1023.91 1023.79 1023.90 1024.51 1025.68 1026.41 1026.43 1025.95 1023.73 1022.81 1022.10 1022.81 1023.60 1024.10 1024.25 1024.35 1024.36
1022.76 1023.45 1023.44 1023.51 1024.89 1026.05 1025.58 1024.52 1023.86 1023.57 1023.24 1023.43 1023.98 1024.62 1025.75 1026.72 1027.33 1026.75 1025.83 1025.13 1024.77 1024.79 1025.12 1025.64 1026.47 1027.19 1026.31 1025.74 1025.02 1024.82 1025.09 1025.75 1026.59 1027.16 1027.06 1026.98 1024.36 1023.82 1023.60 1023.85 1024.11 1024.32 1024.35 1024.25 1024.11
1022.75 1024.03 1024.39 1024.37 1024.73 1024.95 1025.56 1024.78 1024.06 1023.48 1023.34 1023.46 1024.08 1024.84 1026.09 1027.08 1027.60 1027.43 1026.58 1025.83 1025.64 1025.66 1025.94 1026.39 1027.85 1028.29 1028.16 1027.39 1026.69 1026.22 1026.14 1026.61 1027.35 1028.51 1027.93 1026.43 1025.39 1024.69 1024.64 1024.64 1024.57 1024.27 1024.18 1024.16 1023.90
1022.38 1023.49 1023.56 1024.90 1024.87 1024.74 1024.57 1024.21 1023.93 1023.81 1023.66 1023.78 1024.42 1024.84 1025.82 1027.61 1028.12 1028.03 1027.37 1026.80 1026.46 1026.53 1027.05 1027.88 1029.33 1029.39 1029.02 1028.64 1027.81 1026.81 1026.89 1027.10 1027.76 1028.22 1028.25 1026.13 1025.98 1025.30 1024.94 1024.77 1024.62 1024.31 1024.15 1024.00 1023.87
1021.97 1023.13 1023.97 1024.22 1024.15 1024.37 1024.24 1024.22 1023.69 1023.76 1023.66 1024.01 1024.46 1024.70 1025.52 1026.58 1026.87 1027.42 1027.67 1027.98 1027.31 1027.58 1028.06 1028.96 1029.89 1030.50 1030.36 1029.20 1028.27 1026.87 1026.97 1026.90 1026.97 1027.54 1027.47 1026.80 1024.84 1024.23 1024.07 1024.28 1024.28 1024.29 1024.06 1023.84 1023.75
1021.28 1021.75 1022.32 1024.00 1024.09 1024.20 1023.61 1023.22 1023.17 1023.25 1023.65 1023.48 1024.06 1024.91 1025.48 1025.61 1026.27 1026.57 1026.88 1027.10 1027.57 1028.04 1028.85 1029.73 1030.51 1031.64 1031.74 1030.76 1029.33 1026.97 1025.22 1025.22 1025.91 1025.87 1025.97 1025.96 1023.59 1023.82 1024.01 1024.24 1024.21 1023.82 1023.62 1023.55 1023.44
Thickness
5607 5607 5607 5609 5610 5612 5614 5615 5616 5617 5618 5619 5619 5619 5617 5614 5611 5610 5609 5607 5603 5602 5602 5597 5594 5593 5591 5587 5584 5573 5557 5552 5559 5561 5570 5577 5580 5590 5593 5594 5599 5608 5612 5619 5632
5603 5603 5604 5604 5605 5606 5608 5612 5613 5613 5613 5613 5613 5611 5611 5610 5604 5603 5603 5601 5599 5596 5595 5591 5586 5585 5576 5579 5574 5563 5545 5555 5560 5564 5566 5570 5571 5575 5581 5585 5593 5598 5607 5614 5623
5596 5598 5600 5600 5600 5602 5602 5605 5607 5609 5607 5606 5604 5604 5602 5602 5602 5597 5597 5594 5593 5588 5588 5584 5581 5578 5573 5572 5568 5559 5552 5555 5560 5562 5559 5564 5567 5574 5574 5573 5584 5587 5593 5600 5611
5589 5590 5592 5595 5598 5599 5600 5598 5600 5602 5602 5601 5598 5596 5597 5595 5599 5593 5589 5588 5588 5584 5582 5578 5573 5568 5562 5562 5560 5555 5556 5555 5555 5554 5551 5555 5561 5562 5564 5572 5580 5583 5585 5588 5597
5583 5582 5586 5588 5593 5594 5595 5595 5594 5594 5594 5592 5589 5586 5585 5588 5587 5586 5584 5581 5581 5578 5575 5571 5565 5561 5557 5555 5554 5550 5550 5548 5547 5543 5543 5551 5551 5553 5557 5558 5570 5576 5581 5583 5587
5577 5578 5578 5580 5585 5588 5589 5588 5590 5590 5588 5586 5583 5578 5577 5584 5582 5579 5574 5573 5572 5570 5567 5565 5560 5556 5552 5549 5545 5543 5542 5539 5541 5541 5541 5541 5542 5544 5548 5554 5563 5566 5571 5572 5577
5569 5574 5575 5573 5574 5580 5583 5581 5579 5582 5581 5580 5575 5570 5571 5573 5575 5572 5568 5565 5564 5562 5560 5558 5555 5550 5545 5544 5539 5538 5533 5531 5540 5539 5534 5533 5534 5534 5545 5547 5551 5556 5561 5564 5569
5562 5564 5567 5569 5568 5570 5574 5575 5573 5573 5573 5571 5566 5561 5563 5568 5568 5566 5560 5559 5558 5555 5552 5551 5548 5542 5540 5538 5528 5528 5523 5519 5534 5533 5526 5528 5522 5540 5541 5540 5540 5544 5547 5547 5550
5558 5557 5560 5561 5563 5562 5564 5564 5566 5565 5564 5561 5557 5553 5558 5560 5558 5554 5552 5550 5548 5546 5544 5544 5540 5526 5525 5517 5510 5506 5513 5514 5520 5523 5524 5519 5519 5529 5520 5526 5528 5520 5523 5530 5537
5550 5549 5549 5555 5555 5555 5556 5556 5554 5554 5554 5552 5549 5548 5552 5551 5550 5544 5543 5541 5539 5536 5532 5528 5511 5507 5497 5501 5509 5512 5508 5508 5506 5516 5510 5507 5504 5498 5499 5504 5502 5508 5511 5517 5524
5541 5542 5541 5542 5550 5548 5548 5544 5540 5539 5541 5544 5541 5542 5545 5547 5546 5539 5538 5533 5530 5520 5514 5511 5504 5500 5504 5501 5515 5512 5506 5498 5492 5501 5503 5504 5495 5490 5489 5491 5491 5493 5496 5504 5514
5532 5532 5535 5530 5539 5538 5533 5529 5523 5521 5533 5533 5531 5534 5535 5532 5530 5528 5529 5522 5518 5510 5506 5497 5495 5504 5505 5497 5498 5498 5496 5489 5493 5498 5500 5493 5490 5488 5487 5482 5480 5482 5486 5491 5500
5521 5524 5525 5525 5529 5526 5519 5515 5513 5511 5519 5528 5527 5528 5528 5526 5521 5521 5517 5512 5507 5499 5492 5488 5507 5498 5496 5492 5490 5489 5488 5485 5489 5489 5492 5480 5484 5487 5477 5476 5476 5474 5472 5479 5484
5511 5511 5516 5518 5516 5511 5510 5508 5505 5502 5485 5515 5517 5519 5518 5515 5510 5512 5508 5503 5497 5490 5482 5479 5489 5493 5491 5488 5484 5480 5483 5483 5485 5476 5457 5476 5436 5477 5466 5462 5463 5462 5462 5466 5473
5500 5501 5504 5507 5502 5499 5498 5500 5496 5494 5449 5505 5505 5508 5506 5502 5499 5499 5496 5496 5488 5487 5481 5484 5489 5483 5481 5482 5477 5479 5478 5476 5478 5457 5455 5462 5421 5464 5456 5457 5454 5451 5454 5455 5461
5492 5491 5493 5493 5492 5491 5490 5490 5486 5461 5466 5481 5484 5484 5491 5488 5487 5486 5484 5480 5478 5476 5473 5465 5471 5479 5479 5481 5473 5473 5469 5445 5433 5433 5370 5449 5447 5462 5453 5458 5447 5447 5444 5446 5448
5481 5483 5483 5483 5481 5481 5481 5476 5451 5429 5458 5457 5468 5469 5471 5465 5472 5473 5466 5460 5458 5437 5452 5460 5466 5471 5473 5471 5466 5461 5440 5364 5366 5342 5395 5434 5434 5458 5452 5444 5441 5435 5437 5435 5437
5472 5473 5472 5473 5470 5471 5467 5455 5423 5400 5409 5452 5454 5456 5455 5442 5455 5454 5449 5442 5435 5437 5422 5425 5435 5461 5462 5460 5454 5441 5431 5378 5356 5361 5397 5429 5424 5456 5437 5433 5428 5428 5427 5425 5427
5462 5461 5460 5459 5458 5458 5449 5401 5432 5418 5437 5443 5435 5414 5409 5431 5433 5438 5434 5427 5428 5426 5425 5406 5430 5443 5448 5445 5447 5432 5410 5425 5354 5322 5355 5416 5428 5432 5423 5418 5416 5417 5417 5415 5415
5447 5446 5448 5448 5446 5442 5423 5439 5416 5439 5440 5439 5432 5400 5373 5377 5416 5421 5416 5421 5418 5418 5413 5409 5399 5430 5429 5430 5427 5429 5423 5399 5363 5355 5363 5386 5401 5432 5415 5408 5403 5405 5408 5407 5405
5436 5434 5435 5435 5432 5421 5397 5393 5421 5431 5434 5429 5408 5371 5397 5377 5395 5389 5408 5410 5407 5402 5399 5395 5392 5411 5411 5410 5411 5393 5386 5386 5393 5374 5347 5334 5398 5419 5417 5405 5392 5389 5389 5390 5392
5423 5410 5423 5419 5395 5348 5371 5404 5427 5420 5420 5418 5413 5401 5387 5378 5364 5378 5392 5395 5394 5390 5381 5382 5368 5351 5384 5381 5377 5381 5386 5381 5360 5363 5354 5353 5397 5385 5396 5385 5379 5375 5377 5374 5376
5407 5405 5408 5407 5379 5359 5373 5409 5409 5406 5406 5403 5400 5401 5381 5356 5357 5354 5378 5378 5376 5374 5358 5359 5319 5286 5339 5351 5362 5365 5363 5350 5316 5323 5334 5321 5387 5368 5366 5365 5364 5357 5351 5357 5362
5391 5380 5378 5385 5383 5386 5363 5378 5388 5397 5395 5394 5388 5380 5364 5344 5340 5326 5356 5361 5359 5358 5362 5347 5309 5300 5318 5335 5324 5338 5343 5334 5298 5275 5292 5328 5318 5347 5346 5342 5343 5346 5345 5347 5351
5379 5377 5377 5364 5373 5377 5380 5380 5381 5367 5380 5378 5373 5371 5358 5314 5308 5306 5315 5336 5340 5338 5324 5312 5284 5275 5280 5297 5308 5317 5316 5314 5284 5269 5284 5333 5301 5289 5314 5316 5316 5319 5329 5333 5335
5372 5367 5354 5340 5369 5372 5371 5356 5367 5359 5361 5364 5344 5359 5336 5321 5330 5304 5293 5292 5315 5304 5299 5288 5271 5276 5251 5293 5299 5309 5304 5298 5303 5291 5282 5299 5311 5327 5326 5314 5314 5307 5307 5317 5311
5368 5367 5364 5355 5353 5349 5357 5358 5366 5359 5354 5360 5343 5329 5331 5328 5312 5318 5315 5311 5302 5292 5274 5266 5253 5222 5215 5260 5261 5266 5300 5304 5280 5274 5274 5258 5313 5306 5289 5290 5279 5294 5298 5297 5297